Tracking 29892 objects as of 21-Nov-2024
HD Live streaming from Space Station
objects crossing your sky now

ONEWEB-0168

Track ONEWEB-0168 now!
10-day predictions
ONEWEB-0168 is classified as:


NORAD ID: 48068
Int'l Code: 2021-025AC
Perigee: 1,215.7 km
Apogee: 1,218.1 km
Inclination: 87.9 °
Period: 109.6 minutes
Semi major axis: 7587 km
RCS: Unknown
Launch date: March 25, 2021
Source: United States (US)
Launch site: VOSTOCHNY COSMODROME (VOSTO)
Your satellite tracking list
Your tracking list is empty




NASA's NSSDC Master Catalog

Two Line Element Set (TLE):
1 48068U 21025AC  24325.75330795  .00000242  00000-0  62686-3 0  9990
2 48068  87.8925  74.2608 0001580 104.6900 255.4404 13.13469655178281
Source of the keplerian elements: AFSPC